iso_date,epoch_date,Year,Hour,Min,DOY,POS_DOY,Lat,Lon,BP,Ts,Ta,has_bp,has_ts,has_ta,BuoyID,Buoy_Type,Buoy_Owner,Logistics,Hemisphere
2021-08-17T09:50:58Z,1629193859,2021,9,51,229.4104,229.4104,69.35556,-50.94919,-999.00,-999.00,-999.0,no,no,no,4434887,SPIT,USIABP,ICE-PPR<br>DiskoBay,North
2021-08-17T10:01:03Z,1629194463,2021,10,1,229.4174,229.4174,69.35799,-50.94989,-999.00,-999.00,-999.0,no,no,no,4434887,SPIT,USIABP,ICE-PPR<br>DiskoBay,North
2021-08-17T10:59:57Z,1629197997,2021,11,0,229.4583,229.4583,69.37317,-51.39918,-999.00,-999.00,-999.0,no,no,no,4434887,SPIT,USIABP,ICE-PPR<br>DiskoBay,North
2021-08-17T11:30:02Z,1629199803,2021,11,30,229.4792,229.4792,69.37672,-51.39034,-999.00,-999.00,-999.0,no,no,no,4434887,SPIT,USIABP,ICE-PPR<br>DiskoBay,North
2021-08-17T12:00:00Z,1629201600,2021,12,0,229.5,229.5,69.39566,-51.42862,-999.00,-999.00,-999.0,no,no,no,4434887,SPIT,USIABP,ICE-PPR<br>DiskoBay,North
2021-08-17T13:30:00Z,1629207000,2021,13,30,229.5625,229.5625,69.31263,-51.28882,-999.00,-999.00,-999.0,no,no,no,4434887,SPIT,USIABP,ICE-PPR<br>DiskoBay,North
2021-08-17T12:59:02Z,1629205142,2021,12,59,229.541,229.541,69.39876,-51.45939,-999.00,-999.00,-999.0,no,no,no,4434887,SPIT,USIABP,ICE-PPR<br>DiskoBay,North
2021-08-17T13:58:56Z,1629208737,2021,13,59,229.5826,229.5826,69.23096,-51.125,-999.00,-999.00,-999.0,no,no,no,4434887,SPIT,USIABP,ICE-PPR<br>DiskoBay,North
2021-08-17T16:57:56Z,1629219476,2021,16,58,229.7069,229.7069,69.22936,-51.14958,-999.00,-999.00,-999.0,no,no,no,4434887,SPIT,USIABP,ICE-PPR<br>DiskoBay,North
2021-08-17T17:28:01Z,1629221282,2021,17,28,229.7278,229.7278,69.23644,-51.15293,-999.00,-999.00,-999.0,no,no,no,4434887,SPIT,USIABP,ICE-PPR<br>DiskoBay,North
2021-08-17T17:57:59Z,1629223079,2021,17,58,229.7486,229.7486,69.24724,-51.15405,-999.00,-999.00,-999.0,no,no,no,4434887,SPIT,USIABP,ICE-PPR<br>DiskoBay,North
2021-08-17T18:27:56Z,1629224876,2021,18,28,229.7694,229.7694,69.30685,-51.10985,-999.00,-999.00,-999.0,no,no,no,4434887,SPIT,USIABP,ICE-PPR<br>DiskoBay,North
2021-08-17T18:58:01Z,1629226682,2021,18,58,229.7903,229.7903,69.36655,-50.95544,-999.00,-999.00,-999.0,no,no,no,4434887,SPIT,USIABP,ICE-PPR<br>DiskoBay,North
2021-08-17T19:26:58Z,1629228419,2021,19,27,229.8104,229.8104,69.35592,-50.94849,-999.00,-999.00,-999.0,no,no,no,4434887,SPIT,USIABP,ICE-PPR<br>DiskoBay,North
2021-08-17T19:56:55Z,1629230216,2021,19,57,229.8312,229.8312,69.35626,-50.94858,-999.00,-999.00,-999.0,no,no,no,4434887,SPIT,USIABP,ICE-PPR<br>DiskoBay,North
2021-08-17T20:27:01Z,1629232021,2021,20,27,229.8521,229.8521,69.35594,-50.94822,-999.00,-999.00,-999.0,no,no,no,4434887,SPIT,USIABP,ICE-PPR<br>DiskoBay,North
2021-08-17T20:56:58Z,1629233819,2021,20,57,229.8729,229.8729,69.35594,-50.94831,-999.00,-999.00,-999.0,no,no,no,4434887,SPIT,USIABP,ICE-PPR<br>DiskoBay,North
2021-08-17T21:27:04Z,1629235624,2021,21,27,229.8938,229.8938,69.35543,-50.94977,-999.00,-999.00,-999.0,no,no,no,4434887,SPIT,USIABP,ICE-PPR<br>DiskoBay,North
2021-08-17T21:56:00Z,1629237361,2021,21,56,229.9139,229.9139,69.35554,-50.94974,-999.00,-999.00,-999.0,no,no,no,4434887,SPIT,USIABP,ICE-PPR<br>DiskoBay,North
2021-08-17T22:26:58Z,1629239219,2021,22,27,229.9354,229.9354,69.35571,-50.94861,-999.00,-999.00,-999.0,no,no,no,4434887,SPIT,USIABP,ICE-PPR<br>DiskoBay,North
2021-08-17T22:56:03Z,1629240964,2021,22,56,229.9556,229.9556,69.35621,-50.94919,-999.00,-999.00,-999.0,no,no,no,4434887,SPIT,USIABP,ICE-PPR<br>DiskoBay,North
2021-08-17T23:26:00Z,1629242761,2021,23,26,229.9764,229.9764,69.35673,-50.95039,-999.00,-999.00,-999.0,no,no,no,4434887,SPIT,USIABP,ICE-PPR<br>DiskoBay,North
2021-08-17T23:55:58Z,1629244558,2021,23,56,229.9972,229.9972,69.35664,-50.95151,-999.00,-999.00,-999.0,no,no,no,4434887,SPIT,USIABP,ICE-PPR<br>DiskoBay,North
2021-08-18T00:26:03Z,1629246364,2021,0,26,230.0181,230.0181,69.35672,-50.95095,-999.00,-999.00,-999.0,no,no,no,4434887,SPIT,USIABP,ICE-PPR<br>DiskoBay,North
2021-08-18T00:56:00Z,1629248161,2021,0,56,230.0389,230.0389,69.35655,-50.94983,-999.00,-999.00,-999.0,no,no,no,4434887,SPIT,USIABP,ICE-PPR<br>DiskoBay,North
2021-08-18T01:25:58Z,1629249958,2021,1,26,230.0597,230.0597,69.35657,-50.94995,-999.00,-999.00,-999.0,no,no,no,4434887,SPIT,USIABP,ICE-PPR<br>DiskoBay,North
2021-08-18T01:55:03Z,1629251703,2021,1,55,230.0799,230.0799,69.35661,-50.95009,-999.00,-999.00,-999.0,no,no,no,4434887,SPIT,USIABP,ICE-PPR<br>DiskoBay,North
2021-08-18T02:25:00Z,1629253500,2021,2,25,230.1007,230.1007,69.35635,-50.95172,-999.00,-999.00,-999.0,no,no,no,4434887,SPIT,USIABP,ICE-PPR<br>DiskoBay,North
2021-08-18T02:54:57Z,1629255298,2021,2,55,230.1215,230.1215,69.35612,-50.95139,-999.00,-999.00,-999.0,no,no,no,4434887,SPIT,USIABP,ICE-PPR<br>DiskoBay,North
2021-08-18T03:25:03Z,1629257103,2021,3,25,230.1424,230.1424,69.35612,-50.95121,-999.00,-999.00,-999.0,no,no,no,4434887,SPIT,USIABP,ICE-PPR<br>DiskoBay,North
2021-08-18T03:55:00Z,1629258900,2021,3,55,230.1632,230.1632,69.35612,-50.95147,-999.00,-999.00,-999.0,no,no,no,4434887,SPIT,USIABP,ICE-PPR<br>DiskoBay,North
2021-08-18T04:24:57Z,1629260698,2021,4,25,230.184,230.184,69.35587,-50.95078,-999.00,-999.00,-999.0,no,no,no,4434887,SPIT,USIABP,ICE-PPR<br>DiskoBay,North
2021-08-18T04:54:02Z,1629262443,2021,4,54,230.2042,230.2042,69.35577,-50.94922,-999.00,-999.00,-999.0,no,no,no,4434887,SPIT,USIABP,ICE-PPR<br>DiskoBay,North
2021-08-18T05:24:00Z,1629264240,2021,5,24,230.225,230.225,69.35605,-50.94938,-999.00,-999.00,-999.0,no,no,no,4434887,SPIT,USIABP,ICE-PPR<br>DiskoBay,North
2021-08-18T05:53:57Z,1629266037,2021,5,54,230.2458,230.2458,69.35584,-50.95007,-999.00,-999.00,-999.0,no,no,no,4434887,SPIT,USIABP,ICE-PPR<br>DiskoBay,North
2021-08-18T06:24:02Z,1629267843,2021,6,24,230.2667,230.2667,69.35571,-50.95087,-999.00,-999.00,-999.0,no,no,no,4434887,SPIT,USIABP,ICE-PPR<br>DiskoBay,North
2021-08-18T06:52:59Z,1629269580,2021,6,53,230.2868,230.2868,69.35584,-50.95058,-999.00,-999.00,-999.0,no,no,no,4434887,SPIT,USIABP,ICE-PPR<br>DiskoBay,North
2021-08-18T07:22:56Z,1629271377,2021,7,23,230.3076,230.3076,69.35597,-50.95135,-999.00,-999.00,-999.0,no,no,no,4434887,SPIT,USIABP,ICE-PPR<br>DiskoBay,North
2021-08-18T07:53:02Z,1629273182,2021,7,53,230.3285,230.3285,69.35597,-50.95084,-999.00,-999.00,-999.0,no,no,no,4434887,SPIT,USIABP,ICE-PPR<br>DiskoBay,North
2021-08-18T08:24:00Z,1629275040,2021,8,24,230.35,230.35,69.35585,-50.95029,-999.00,-999.00,-999.0,no,no,no,4434887,SPIT,USIABP,ICE-PPR<br>DiskoBay,North
2021-08-18T08:52:56Z,1629276777,2021,8,53,230.3701,230.3701,69.36493,-50.95032,-999.00,-999.00,-999.0,no,no,no,4434887,SPIT,USIABP,ICE-PPR<br>DiskoBay,North
2021-08-18T09:23:02Z,1629278582,2021,9,23,230.391,230.391,69.43356,-51.15717,-999.00,-999.00,-999.0,no,no,no,4434887,SPIT,USIABP,ICE-PPR<br>DiskoBay,North
2021-08-18T09:52:59Z,1629280380,2021,9,53,230.4118,230.4118,69.52294,-51.32626,-999.00,-999.00,-999.0,no,no,no,4434887,SPIT,USIABP,ICE-PPR<br>DiskoBay,North
2021-08-18T10:22:56Z,1629282177,2021,10,23,230.4326,230.4326,69.61976,-51.49835,-999.00,-999.00,-999.0,no,no,no,4434887,SPIT,USIABP,ICE-PPR<br>DiskoBay,North
2021-08-18T10:53:02Z,1629283982,2021,10,53,230.4535,230.4535,69.7304,-51.51268,-999.00,-999.00,-999.0,no,no,no,4434887,SPIT,USIABP,ICE-PPR<br>DiskoBay,North
2021-08-18T11:22:59Z,1629285780,2021,11,23,230.4743,230.4743,69.80061,-51.48358,-999.00,-999.00,-999.0,no,no,no,4434887,SPIT,USIABP,ICE-PPR<br>DiskoBay,North
2021-08-18T11:51:56Z,1629287516,2021,11,52,230.4944,230.4944,69.80641,-51.49118,-999.00,-999.00,-999.0,no,no,no,4434887,SPIT,USIABP,ICE-PPR<br>DiskoBay,North
2021-08-18T12:22:01Z,1629289322,2021,12,22,230.5153,230.5153,69.82284,-51.50348,-999.00,-999.00,-999.0,no,no,no,4434887,SPIT,USIABP,ICE-PPR<br>DiskoBay,North
2021-08-18T12:51:59Z,1629291119,2021,12,52,230.5361,230.5361,69.83069,-51.50674,-999.00,-999.00,-999.0,no,no,no,4434887,SPIT,USIABP,ICE-PPR<br>DiskoBay,North
2021-08-18T14:20:58Z,1629296459,2021,14,21,230.5979,230.5979,69.92786,-51.60074,-999.00,-999.00,-999.0,no,no,no,4434887,SPIT,USIABP,ICE-PPR<br>DiskoBay,North
2021-08-18T14:51:04Z,1629298264,2021,14,51,230.6188,230.6188,69.94344,-51.64099,-999.00,-999.00,-999.0,no,no,no,4434887,SPIT,USIABP,ICE-PPR<br>DiskoBay,North
2021-08-18T15:21:01Z,1629300061,2021,15,21,230.6396,230.6396,69.94765,-51.62305,-999.00,-999.00,-999.0,no,no,no,4434887,SPIT,USIABP,ICE-PPR<br>DiskoBay,North
2021-08-18T16:20:55Z,1629303656,2021,16,21,230.6812,230.6812,69.94217,-51.58636,-999.00,-999.00,-999.0,no,no,no,4434887,SPIT,USIABP,ICE-PPR<br>DiskoBay,North
2021-08-18T16:51:01Z,1629305461,2021,16,51,230.7021,230.7021,69.9381,-51.61692,-999.00,-999.00,-999.0,no,no,no,4434887,SPIT,USIABP,ICE-PPR<br>DiskoBay,North
2021-08-18T17:20:58Z,1629307259,2021,17,21,230.7229,230.7229,69.93183,-51.65271,-999.00,-999.00,-999.0,no,no,no,4434887,SPIT,USIABP,ICE-PPR<br>DiskoBay,North
2021-08-18T17:50:03Z,1629309004,2021,17,50,230.7431,230.7431,69.94978,-51.9238,-999.00,-999.00,-999.0,no,no,no,4434887,SPIT,USIABP,ICE-PPR<br>DiskoBay,North
2021-08-18T18:20:00Z,1629310801,2021,18,20,230.7639,230.7639,69.95164,-51.9372,-999.00,-999.00,-999.0,no,no,no,4434887,SPIT,USIABP,ICE-PPR<br>DiskoBay,North
2021-08-18T18:49:58Z,1629312598,2021,18,50,230.7847,230.7847,69.94651,-52.06482,-999.00,-999.00,-999.0,no,no,no,4434887,SPIT,USIABP,ICE-PPR<br>DiskoBay,North
2021-08-18T19:20:03Z,1629314404,2021,19,20,230.8056,230.8056,69.95825,-52.23984,-999.00,-999.00,-999.0,no,no,no,4434887,SPIT,USIABP,ICE-PPR<br>DiskoBay,North
2021-08-18T19:50:00Z,1629316201,2021,19,50,230.8264,230.8264,70.01474,-52.50699,-999.00,-999.00,-999.0,no,no,no,4434887,SPIT,USIABP,ICE-PPR<br>DiskoBay,North
2021-08-18T20:18:57Z,1629317938,2021,20,19,230.8465,230.8465,70.0752,-52.76987,-999.00,-999.00,-999.0,no,no,no,4434887,SPIT,USIABP,ICE-PPR<br>DiskoBay,North
2021-08-18T20:49:03Z,1629319743,2021,20,49,230.8674,230.8674,70.08511,-52.9896,-999.00,-999.00,-999.0,no,no,no,4434887,SPIT,USIABP,ICE-PPR<br>DiskoBay,North
2021-08-18T21:19:00Z,1629321540,2021,21,19,230.8882,230.8882,70.08678,-52.71091,-999.00,-999.00,-999.0,no,no,no,4434887,SPIT,USIABP,ICE-PPR<br>DiskoBay,North
2021-08-18T21:47:57Z,1629323277,2021,21,48,230.9083,230.9083,70.06891,-52.4203,-999.00,-999.00,-999.0,no,no,no,4434887,SPIT,USIABP,ICE-PPR<br>DiskoBay,North
2021-08-18T22:18:02Z,1629325083,2021,22,18,230.9292,230.9292,70.06415,-52.36331,-999.00,-999.00,-999.0,no,no,no,4434887,SPIT,USIABP,ICE-PPR<br>DiskoBay,North
2021-08-18T22:48:00Z,1629326880,2021,22,48,230.95,230.95,70.06441,-52.36108,-999.00,-999.00,-999.0,no,no,no,4434887,SPIT,USIABP,ICE-PPR<br>DiskoBay,North
2021-08-19T00:18:00Z,1629332280,2021,0,18,231.0125,231.0125,70.06459,-52.3602,-999.00,-999.00,-999.0,no,no,no,4434887,SPIT,USIABP,ICE-PPR<br>DiskoBay,North
2021-08-19T00:47:57Z,1629334077,2021,0,48,231.0333,231.0333,70.06462,-52.36063,-999.00,-999.00,-999.0,no,no,no,4434887,SPIT,USIABP,ICE-PPR<br>DiskoBay,North
2021-08-19T02:47:02Z,1629341222,2021,2,47,231.116,231.116,70.06465,-52.36066,-999.00,-999.00,-999.0,no,no,no,4434887,SPIT,USIABP,ICE-PPR<br>DiskoBay,North
2021-08-19T03:46:56Z,1629344817,2021,3,47,231.1576,231.1576,70.06429,-52.36025,-999.00,-999.00,-999.0,no,no,no,4434887,SPIT,USIABP,ICE-PPR<br>DiskoBay,North
2021-08-19T04:17:02Z,1629346622,2021,4,17,231.1785,231.1785,70.06403,-52.36102,-999.00,-999.00,-999.0,no,no,no,4434887,SPIT,USIABP,ICE-PPR<br>DiskoBay,North
2021-08-19T04:45:59Z,1629348359,2021,4,46,231.1986,231.1986,70.06413,-52.36075,-999.00,-999.00,-999.0,no,no,no,4434887,SPIT,USIABP,ICE-PPR<br>DiskoBay,North
2021-08-19T05:15:56Z,1629350156,2021,5,16,231.2194,231.2194,70.06451,-52.36023,-999.00,-999.00,-999.0,no,no,no,4434887,SPIT,USIABP,ICE-PPR<br>DiskoBay,North
2021-08-19T05:46:01Z,1629351962,2021,5,46,231.2403,231.2403,70.06432,-52.36009,-999.00,-999.00,-999.0,no,no,no,4434887,SPIT,USIABP,ICE-PPR<br>DiskoBay,North
2021-08-19T06:15:59Z,1629353759,2021,6,16,231.2611,231.2611,70.06411,-52.36043,-999.00,-999.00,-999.0,no,no,no,4434887,SPIT,USIABP,ICE-PPR<br>DiskoBay,North
2021-08-19T06:45:56Z,1629355556,2021,6,46,231.2819,231.2819,70.06432,-52.35992,-999.00,-999.00,-999.0,no,no,no,4434887,SPIT,USIABP,ICE-PPR<br>DiskoBay,North
2021-08-19T07:16:01Z,1629357362,2021,7,16,231.3028,231.3028,70.06432,-52.35992,-999.00,-999.00,-999.0,no,no,no,4434887,SPIT,USIABP,ICE-PPR<br>DiskoBay,North
2021-08-19T07:45:59Z,1629359159,2021,7,46,231.3236,231.3236,70.06451,-52.35989,-999.00,-999.00,-999.0,no,no,no,4434887,SPIT,USIABP,ICE-PPR<br>DiskoBay,North
2021-08-19T08:15:56Z,1629360956,2021,8,16,231.3444,231.3444,70.06471,-52.35947,-999.00,-999.00,-999.0,no,no,no,4434887,SPIT,USIABP,ICE-PPR<br>DiskoBay,North
2021-08-19T09:44:55Z,1629366296,2021,9,45,231.4062,231.4062,70.06425,-52.36014,-999.00,-999.00,-999.0,no,no,no,4434887,SPIT,USIABP,ICE-PPR<br>DiskoBay,North
2021-08-19T10:15:01Z,1629368101,2021,10,15,231.4271,231.4271,70.06451,-52.3598,-999.00,-999.00,-999.0,no,no,no,4434887,SPIT,USIABP,ICE-PPR<br>DiskoBay,North
2021-08-19T11:15:04Z,1629371704,2021,11,15,231.4688,231.4688,70.06465,-52.36001,-999.00,-999.00,-999.0,no,no,no,4434887,SPIT,USIABP,ICE-PPR<br>DiskoBay,North
2021-08-19T11:45:01Z,1629373501,2021,11,45,231.4896,231.4896,70.06448,-52.35975,-999.00,-999.00,-999.0,no,no,no,4434887,SPIT,USIABP,ICE-PPR<br>DiskoBay,North
2021-08-19T12:14:58Z,1629375299,2021,12,15,231.5104,231.5104,70.05804,-52.43906,-999.00,-999.00,-999.0,no,no,no,4434887,SPIT,USIABP,ICE-PPR<br>DiskoBay,North
2021-08-19T12:44:03Z,1629377044,2021,12,44,231.5306,231.5306,70.06782,-52.52371,-999.00,-999.00,-999.0,no,no,no,4434887,SPIT,USIABP,ICE-PPR<br>DiskoBay,North
2021-08-19T13:14:00Z,1629378841,2021,13,14,231.5514,231.5514,70.06735,-52.52543,-999.00,-999.00,-999.0,no,no,no,4434887,SPIT,USIABP,ICE-PPR<br>DiskoBay,North
2021-08-19T13:43:58Z,1629380638,2021,13,44,231.5722,231.5722,70.06653,-52.52277,-999.00,-999.00,-999.0,no,no,no,4434887,SPIT,USIABP,ICE-PPR<br>DiskoBay,North
2021-08-19T14:14:03Z,1629382444,2021,14,14,231.5931,231.5931,70.06647,-52.52086,-999.00,-999.00,-999.0,no,no,no,4434887,SPIT,USIABP,ICE-PPR<br>DiskoBay,North
2021-08-19T14:44:00Z,1629384241,2021,14,44,231.6139,231.6139,70.06556,-52.51751,-999.00,-999.00,-999.0,no,no,no,4434887,SPIT,USIABP,ICE-PPR<br>DiskoBay,North
2021-08-19T15:13:58Z,1629386038,2021,15,14,231.6347,231.6347,70.06441,-52.51425,-999.00,-999.00,-999.0,no,no,no,4434887,SPIT,USIABP,ICE-PPR<br>DiskoBay,North
2021-08-19T16:43:58Z,1629391438,2021,16,44,231.6972,231.6972,70.05952,-52.49692,-999.00,-999.00,-999.0,no,no,no,4434887,SPIT,USIABP,ICE-PPR<br>DiskoBay,North
2021-08-19T17:14:03Z,1629393244,2021,17,14,231.7181,231.7181,70.05892,-52.491,-999.00,-999.00,-999.0,no,no,no,4434887,SPIT,USIABP,ICE-PPR<br>DiskoBay,North
2021-08-19T17:43:00Z,1629394980,2021,17,43,231.7382,231.7382,70.05842,-52.48458,-999.00,-999.00,-999.0,no,no,no,4434887,SPIT,USIABP,ICE-PPR<br>DiskoBay,North
2021-08-19T18:12:57Z,1629396778,2021,18,13,231.759,231.759,70.05795,-52.47977,-999.00,-999.00,-999.0,no,no,no,4434887,SPIT,USIABP,ICE-PPR<br>DiskoBay,North
